Location: Mauna Kea VIS
(19.7591°N, 155.4561°W)
Time: 14:56:23
(UTC-10:00)

Hubble Space Telescope - Pass Details

Date: 16 December 2025
Orbit: 479 x 481 km, 28.5° (Epoch: 16 January)

Event Time Altitude Azimuth Distance (km) Brightness Sun altitude
Rises 18:27:38 0° 298° (WNW) 2,523 4.8 -9.8°
Reaches altitude 10° 18:30:00 10° 309° (NW) 1,644 3.7 -10.3°
Maximum altitude 18:33:25 32° 13° (NNE) 844 1.5 -11.1°
Enters shadow 18:35:38 18° 67° (ENE) 1,246 2.0 -11.6°
